Weather History for Afonsos, Brazil

Change the Weather History Date:

Friday, February 14, 2014

  Actual Average Record
Temperature  
Mean Temperature 86 °F -  
Max Temperature 98 °F 90 °F 102 °F (2001)
Min Temperature 73 °F 76 °F 66 °F (2009)
Cooling Degree Days 20    
Growing Degree Days 36 (Base 50)    
Moisture  
Dew Point 68 °F    
Average Humidity 58    
Maximum Humidity 83    
Minimum Humidity 32    
Precipitation  
Precipitation 0.00 in - - ()
Sea Level Pressure  
Sea Level Pressure 29.81 in    
Wind  
Wind Speed 5 mph ()    
Max Wind Speed 18 mph    
Max Gust Speed -    
Visibility 6.2 miles    
Events      
Averages and records for this station are not official NWS values.
T = Trace of Precipitation, MM = Missing Value Source: Averaged Metar Reports

Daily Weather History Graph

Daily Weather History Graph

Search for Another Location

Airport:

Trip Planner

Search our weather history database for the weather conditions in past years. The results will help you decide how hot, cold, wet, or windy it might be!

Date:

Astronomy

Feb. 14, 2014 Rise Set
Actual Time 6:41 AM BRST 7:33 PM BRST
Civil Twilight 6:18 AM BRST 7:56 PM BRST
Nautical Twilight 5:50 AM BRST 8:24 PM BRST
Astronomical Twilight 5:22 AM BRST 8:52 PM BRST
Moon 7:11 PM BRST (2/14) 6:14 AM BRST (2/14)
Length of Visible Light 13h 38m
Length of Day
12h 51m
Full, 100% of the Moon is Illuminated
Feb 14
Full
Feb 14
Full
Feb 22
Last Quarter
Mar 1
New
Mar 8
First Quarter

Hourly Weather History & Observations

Time (BRST) Temp. Heat Index Dew Point Humidity Pressure Visibility Wind Dir Wind Speed Gust Speed Precip Events Conditions
12:00 AM 86.0 °F 88.2 °F 66.2 °F 51% 29.77 in - NNE 3.5 mph - N/A   Clear
1:00 AM 86.0 °F 88.2 °F 66.2 °F 51% 29.77 in - NE 5.8 mph - N/A   Clear
2:00 AM 84.2 °F 87.3 °F 68.0 °F 58% 29.77 in - ENE 1.2 mph - N/A   Clear
3:00 AM 84.2 °F 87.3 °F 68.0 °F 58% 29.74 in - Calm Calm - N/A   Clear
4:00 AM 82.4 °F 85.4 °F 68.0 °F 62% 29.74 in - East 2.3 mph - N/A   Clear
5:00 AM 78.8 °F - 68.0 °F 69% 29.74 in - NE 3.5 mph - N/A   Clear
6:00 AM 75.2 °F - 66.2 °F 73% 29.77 in - WSW 2.3 mph - N/A   Clear
7:00 AM 73.4 °F - 68.0 °F 83% 29.80 in - SW 2.3 mph - N/A   Clear
8:00 AM 84.2 °F 87.3 °F 68.0 °F 58% 29.83 in 6.2 mi NW 1.2 mph - N/A   Scattered Clouds
9:00 AM 87.8 °F 91.4 °F 68.0 °F 52% 29.83 in 6.2 mi NE 3.5 mph - N/A   Partly Cloudy
10:00 AM 91.4 °F 94.0 °F 66.2 °F 43% 29.83 in 6.2 mi East 2.3 mph - N/A   Mostly Cloudy
11:00 AM 91.4 °F 93.2 °F 64.4 °F 41% 29.86 in 6.2 mi North 4.6 mph - N/A   Mostly Cloudy
12:00 PM 96.8 °F 98.0 °F 62.6 °F 32% 29.83 in 6.2 mi North 9.2 mph - N/A   Scattered Clouds
1:00 PM 98.6 °F 102.8 °F 66.2 °F 35% 29.83 in 6.2 mi SSE 4.6 mph - N/A   Scattered Clouds
2:00 PM 91.4 °F 95.4 °F 68.0 °F 46% 29.83 in 6.2 mi South 16.1 mph - N/A   Scattered Clouds
3:00 PM 91.4 °F 95.4 °F 68.0 °F 46% 29.80 in 6.2 mi South 18.4 mph - N/A   Scattered Clouds
4:00 PM 89.6 °F 94.7 °F 69.8 °F 52% 29.80 in 6.2 mi South 18.4 mph - N/A   Scattered Clouds
5:00 PM 87.8 °F 91.4 °F 68.0 °F 52% 29.77 in 6.2 mi South 18.4 mph - N/A   Scattered Clouds
6:00 PM 86.0 °F 91.8 °F 71.6 °F 62% 29.80 in 6.2 mi South 17.3 mph - N/A   Partly Cloudy
7:00 PM 82.4 °F 87.2 °F 71.6 °F 70% 29.83 in 6.2 mi South 16.1 mph - N/A   Partly Cloudy
8:00 PM 80.6 °F 84.6 °F 71.6 °F 74% 29.83 in 6.2 mi South 10.4 mph - N/A   Partly Cloudy
9:00 PM 80.6 °F 84.6 °F 71.6 °F 74% 29.86 in 6.2 mi South 12.7 mph - N/A   Partly Cloudy
10:00 PM 78.8 °F - 71.6 °F 78% 29.89 in 6.2 mi SSW 5.8 mph - N/A   Partly Cloudy
11:00 PM 80.6 °F 84.6 °F 71.6 °F 74% 29.92 in 6.2 mi SSW 4.6 mph - N/A   Scattered Clouds